[[{"header":{"parameterUnit":"m.s-1","parameterCategory":2,"la1":30.2991,"la2":30.254,"lo1":-89.0895,"lo2":-89.0444,"dy":0.0017,"dx":0.0017,"nx":28,"ny":28,"refTime":"2024-09-04T03:00:00:Z","depth":"0","parameterNumber":2,"parameterNumberName":"U-component_of_CURRENTS"},"data":[0,0,0,0,0,0,0,0,0,0,0,0,0,0,0,0,0,0,0,0,0,0,0,0,0,0,0,0,0,0,0,0,0,0,0,0,0,0,0,0,0,0,0,0,0,0,0,0,0,0,0,0,0,0,0,0,0,0,0.1192,0.1192,0,0.1197,0.1198,0.1198,0.1195,0.1195,0.1195,0.1195,0.1253,0.1255,0.1256,0,0,0,0,0,0,0,0,0,0,0,0,0,0.118,0.118,0.1192,0.1192,0.1192,0.1197,0.1198,0.1198,0.1195,0.1195,0.1195,0.1195,0.1253,0.1255,0.1257,0,0,0,0,0,0,0,0,0,0,0,0,0,0.1186,0.118,0.1192,0.1191,0.1191,0.1197,0.1198,0.1198,0.1196,0.1195,0.1195,0.1195,0.1252,0.1254,0.1257,0.1278,0,0,0.1265,0.1266,0,0,0,0,0,0,0,0,0.1185,0.1186,0.1191,0.1191,0.1191,0.1195,0.1215,0.1227,0.1196,0.1194,0.1195,0.1195,0.1238,0.1242,0.1244,0.1281,0.1283,0.1265,0.1267,0.1268,0.1268,0,0,0,0,0,0,0,0.1185,0.1186,0.1194,0.1191,0.1191,0.1191,0.1191,0.1217,0.1219,0.1194,0.1194,0.1194,0.1239,0.1241,0.1245,0.1284,0.1265,0.1267,0.1269,0.127,0.1435,0.1437,0,0,0,0,0,0,0.1184,0.1186,0.1194,0.1195,0.1187,0.1191,0.1192,0.1194,0.1218,0.122,0.1194,0.1194,0.1237,0.1242,0.1247,0.1325,0.1268,0.127,0.1272,0.1432,0.1435,0.1438,0,0,0,0,0,0,0.1183,0.1184,0.1194,0.119,0.1191,0.1191,0.1194,0.1195,0.1198,0.1217,0.1221,0.1197,0.1237,0.1244,0.1294,0.1325,0.1271,0.1274,0.1428,0.1433,0.1437,0.1447,0,0,0,0,0,0,0.1183,0.1184,0.1188,0.119,0.1191,0.121,0.1195,0.1195,0.1198,0.1198,0.1221,0.1226,0.1237,0.129,0.1297,0.1328,0.1276,0.1425,0.143,0.1435,0.1443,0.1451,0.1458,0,0,0,0,0,0.1183,0.1189,0.1189,0.119,0.1196,0.1211,0.1212,0.1211,0.1198,0.1211,0.1235,0.1225,0.1329,0.1294,0.1301,0.1333,0.1422,0.1429,0.1435,0.144,0.145,0.1458,0,0,0,0,0,0,0.1191,0.1189,0.1189,0.1196,0.1208,0.121,0.1216,0.1213,0.1238,0.1235,0.1251,0.126,0.1323,0.1334,0.1295,0.1404,0.1379,0.1387,0.138,0.139,0.1397,0.1446,0.1278,0,0,0,0,0,0.1194,0.1197,0.1202,0.1211,0.1214,0.1214,0.1219,0.1218,0.1236,0.1244,0.1262,0.1299,0.1356,0.1373,0.1419,0.1463,0.1502,0.1497,0.1504,0.151,0.156,0.1663,0.1684,0.1459,0.1459,0.1459,0,0,0.1201,0.12,0.1203,0.1213,0.1217,0.1238,0.1217,0.1224,0.1256,0.1249,0.1296,0.1325,0.1378,0.1441,0.1469,0.1448,0.1583,0.1518,0.1522,0.157,0.1672,0.1694,0.1714,0.1464,0.1463,0.1462,0,0,0.1214,0.1215,0.1219,0.1232,0.1239,0.125,0.1253,0.1259,0.1276,0.1323,0.1342,0.1404,0.1451,0.1513,0.1548,0.1631,0.1626,0.1624,0.1688,0.1786,0.1806,0.1823,0.184,0.1859,0.1617,0.1617,0.1617,0,0.1225,0.1233,0.1227,0.124,0.1261,0.1259,0.1285,0.1308,0.1333,0.1364,0.1347,0.1477,0.1507,0.1623,0.1655,0.165,0.1672,0.1635,0.1795,0.1814,0.1832,0.1845,0.1866,0.1619,0.1618,0.1618,0.1618,0,0.1241,0.1256,0.1263,0.1286,0.131,0.1331,0.1362,0.1389,0.1404,0.143,0.1532,0.1587,0.167,0.1683,0.1696,0.1836,0.1795,0.1792,0.1763,0.1855,0.1862,0.1884,0.162,0.162,0.162,0.1619,0,0,0.1257,0.1272,0.1276,0.1298,0.1337,0.1359,0.1421,0.1485,0.1529,0.1576,0.1658,0.1771,0.1788,0.1838,0.1856,0.1943,0.206,0.192,0.1924,0.1921,0.2219,0.2123,0.2136,0.2072,0.2077,0.2082,0.2149,0,0.128,0.1305,0.1319,0.1376,0.1399,0.1435,0.1498,0.1555,0.1601,0.1674,0.176,0.1837,0.1848,0.1877,0.1982,0.2046,0.213,0.2039,0.2149,0.2152,0.2044,0.2165,0.2082,0.2132,0.2171,0.2174,0.2177,0,0.1297,0.1315,0.1358,0.1422,0.1438,0.1479,0.1578,0.1629,0.1731,0.1765,0.1865,0.191,0.2053,0.2041,0.2236,0.2167,0.2223,0.2266,0.2269,0.221,0.2101,0.2064,0.2171,0.212,0.2211,0.2208,0.2206,0,0.1304,0.1352,0.139,0.1411,0.1478,0.1519,0.1564,0.1654,0.1695,0.1816,0.1848,0.2015,0.2074,0.2219,0.2294,0.2278,0.2477,0.2455,0.2425,0.2413,0.2389,0.2367,0.2461,0.2637,0.2637,0.2637,0.2637,0,0.1329,0.1363,0.1391,0.1412,0.147,0.152,0.1588,0.1649,0.1732,0.1784,0.1888,0.1955,0.2129,0.2235,0.233,0.2429,0.2507,0.2485,0.2463,0.2379,0.2357,0.2347,0.2286,0.2639,0.2639,0.2638,0.2638,0,0.1338,0.1353,0.1395,0.1453,0.1466,0.1507,0.156,0.1604,0.168,0.1752,0.1784,0.1923,0.206,0.2193,0.2393,0.2434,0.2482,0.2567,0.2409,0.2369,0.2288,0.2228,0.2241,0.2179,0.2571,0.2569,0.2568,0,0.1343,0.1361,0.14,0.1406,0.1429,0.1473,0.1496,0.1569,0.16,0.1723,0.1754,0.1892,0.1979,0.2191,0.2329,0.2472,0.2421,0.2437,0.2433,0.2316,0.2236,0.2141,0.2081,0.2375,0.2372,0.237,0.2368,0,0.1355,0.1363,0.1385,0.1384,0.14,0.1419,0.1451,0.1462,0.155,0.1603,0.168,0.1756,0.1955,0.2071,0.223,0.2317,0.2298,0.2394,0.2365,0.2189,0.2009,0.1922,0.2228,0.2349,0.2351,0.2352,0.2353,0.2354,0.1349,0.1354,0.1352,0.1359,0.1365,0.1353,0.1348,0.1381,0.1412,0.148,0.1584,0.1672,0.1843,0.2073,0.2136,0.2181,0.2175,0.2169,0.213,0.2063,0.1951,0.2168,0.2202,0.2203,0.2204,0.2204,0.2205,0,0.1317,0.1313,0.1317,0.1305,0.1287,0.1304,0.1306,0.1289,0.1295,0.139,0.1452,0.1608,0.1714,0.1861,0.1985,0.1949,0.19,0.1897,0.179,0.1765,0.2065,0.2006,0.1888,0.1888,0.1888,0.1888,0.1888,0.1888,0.1289,0.1268,0.1268,0.1221,0.121,0.116,0.1146,0.1133,0.1172,0.1237,0.1324,0.1435,0.1612,0.1743,0.1766,0.1739,0.1633,0.1538,0.1538,0.1784,0.1808,0.1831,0.1768,0.1601,0.1601,0.1212,0.1208,0.1206]},{"header":{"parameterUnit":"m.s-1","parameterCategory":2,"la1":30.2991,"la2":30.254,"lo1":-89.0895,"lo2":-89.0444,"dy":0.0017,"dx":0.0017,"nx":28,"ny":28,"refTime":"2024-09-04T03:00:00:Z","depth":"0","parameterNumber":3,"parameterNumberName":"V-component_of_CURRENTS"},"data":[0,0,0,0,0,0,0,0,0,0,0,0,0,0,0,0,0,0,0,0,0,0,0,0,0,0,0,0,0,0,0,0,0,0,0,0,0,0,0,0,0,0,0,0,0,0,0,0,0,0,0,0,0,0,0,0,0,0,-0.0048,-0.0049,0,-0.0096,-0.0096,-0.0096,-0.014,-0.0141,-0.0142,-0.0143,-0.0028,-0.0025,-0.0021,0,0,0,0,0,0,0,0,0,0,0,0,0,0.0043,0.0041,-0.0048,-0.0049,-0.005,-0.0096,-0.0096,-0.0096,-0.014,-0.0141,-0.0142,-0.0143,-0.003,-0.0025,-0.002,0,0,0,0,0,0,0,0,0,0,0,0,0,0.0003,0.0041,-0.0048,-0.008,-0.0084,-0.0096,-0.0096,-0.0096,-0.014,-0.0141,-0.0143,-0.0144,-0.0031,-0.0025,-0.002,0.0042,0,0,-0.0002,0.0001,0,0,0,0,0,0,0,0,0.0006,0.0001,-0.0075,-0.0078,-0.0082,-0.0117,-0.0022,-0.0043,-0.014,-0.0115,-0.0143,-0.0144,-0.0044,-0.0037,-0.0041,0.0048,0.0053,-0.0001,0.0002,0.0005,0.0006,0,0,0,0,0,0,0,0.0008,0.0003,-0.0063,-0.0075,-0.008,-0.0079,-0.0086,-0.0027,-0.0066,-0.0117,-0.0121,-0.0132,-0.0045,-0.0046,-0.0038,0.0054,-0.0002,0.0003,0.0007,0.0009,0.021,0.0212,0,0,0,0,0,0,0.0006,0.0005,-0.0062,-0.0065,-0.0045,-0.008,-0.0088,-0.0101,-0.007,-0.0069,-0.0131,-0.0134,-0.0055,-0.0045,-0.0034,0.0082,0.0004,0.001,0.0013,0.0209,0.0211,0.0213,0,0,0,0,0,0,0.0008,0.0001,-0.006,-0.0034,-0.0042,-0.0081,-0.0095,-0.0102,-0.0107,-0.0083,-0.0078,-0.0131,-0.0056,-0.0042,0.0026,0.0084,0.0013,0.0018,0.0206,0.0209,0.0212,0.0288,0,0,0,0,0,0,0.0011,0.0002,0.0001,-0.0034,-0.0044,-0.0054,-0.0095,-0.0102,-0.0114,-0.0118,-0.0081,-0.0072,-0.0056,0.0017,0.0032,0.0091,0.0022,0.0204,0.0208,0.0211,0.0283,0.0293,0.0302,0,0,0,0,0,0.0015,0.0017,0.0001,-0.0007,-0.0047,-0.0054,-0.0057,-0.0087,-0.0112,-0.0099,-0.0079,-0.0074,0.0049,0.0024,0.0041,0.0103,0.0202,0.0207,0.0211,0.0279,0.0291,0.0301,0,0,0,0,0,0,0.0055,0.0011,-0.0006,-0.0018,-0.0029,-0.0062,-0.0058,-0.0081,-0.0059,-0.0061,-0.0043,-0.0031,0.0052,0.0063,0.0034,0.0167,0.0126,0.0133,0.0172,0.0184,0.0193,0.024,0.0027,0,0,0,0,0,0.0064,0.0056,0.002,0.0016,0.0009,-0.0022,-0.0029,-0.0049,-0.0044,-0.004,-0.0011,0.0026,0.0084,0.0118,0.0166,0.0247,0.0248,0.0293,0.0303,0.031,0.0359,0.0406,0.0424,0.0227,0.0227,0.0226,0,0,0.0077,0.0054,0.0048,0.0025,0.0011,0.0035,-0.0028,-0.0033,0.0011,-0.0021,0.0057,0.0066,0.0111,0.0195,0.0233,0.0213,0.0355,0.0316,0.0322,0.0368,0.0412,0.0432,0.0449,0.0229,0.0229,0.0228,0,0,0.0112,0.0082,0.0093,0.0094,0.0076,0.0071,0.0072,0.0053,0.0068,0.0133,0.0122,0.0169,0.025,0.0293,0.0327,0.0421,0.0401,0.042,0.0517,0.0561,0.0578,0.0593,0.0564,0.0577,0.0427,0.0427,0.0427,0,0.0132,0.0144,0.0099,0.0123,0.0146,0.0096,0.0142,0.0157,0.017,0.0214,0.0176,0.0298,0.0313,0.0439,0.0456,0.045,0.0438,0.0469,0.0574,0.059,0.0604,0.0571,0.0584,0.0431,0.0431,0.043,0.043,0,0.0182,0.0203,0.0214,0.0239,0.026,0.0287,0.0301,0.0339,0.0347,0.0364,0.047,0.048,0.0556,0.0554,0.0539,0.0654,0.0595,0.0576,0.0547,0.0629,0.0588,0.06,0.0437,0.0435,0.0434,0.0433,0,0,0.0208,0.0244,0.0253,0.0306,0.0328,0.0361,0.0447,0.0524,0.0595,0.0616,0.0727,0.0788,0.0764,0.0801,0.0774,0.0804,0.0852,0.0734,0.0734,0.0707,0.0897,0.0792,0.0793,0.0844,0.0848,0.0851,0.0806,0,0.0271,0.0356,0.0358,0.0476,0.0532,0.0546,0.0641,0.0704,0.0744,0.0835,0.0861,0.0938,0.0868,0.0887,0.0919,0.0877,0.0897,0.0864,0.0823,0.0822,0.0722,0.0811,0.0744,0.0695,0.0817,0.0819,0.0821,0,0.033,0.0389,0.0502,0.0626,0.0653,0.0721,0.0868,0.0938,0.1037,0.1065,0.1133,0.1128,0.1192,0.1105,0.1116,0.109,0.1021,0.097,0.0967,0.0869,0.0743,0.0645,0.0712,0.0574,0.0838,0.0837,0.0836,0,0.0395,0.0503,0.0611,0.0648,0.0763,0.0844,0.0915,0.1015,0.1088,0.1199,0.1241,0.1314,0.133,0.1307,0.1184,0.116,0.1159,0.1109,0.0953,0.094,0.0883,0.086,0.0827,0.1145,0.1146,0.1146,0.1146,0,0.0473,0.0564,0.0654,0.0715,0.0869,0.0923,0.1072,0.1143,0.1241,0.1328,0.1353,0.1416,0.1383,0.1358,0.1257,0.1133,0.1217,0.1007,0.0955,0.0897,0.0877,0.0752,0.0696,0.1144,0.1144,0.1145,0.1145,0,0.0531,0.0577,0.0712,0.085,0.0895,0.1008,0.1139,0.123,0.1305,0.1416,0.145,0.1502,0.1464,0.1384,0.1316,0.1198,0.1015,0.1032,0.0925,0.0863,0.0588,0.0539,0.0513,0.0456,0.0879,0.0876,0.0874,0,0.0572,0.0641,0.0795,0.0861,0.0924,0.1068,0.115,0.1255,0.133,0.1453,0.1507,0.1518,0.1522,0.1372,0.118,0.1002,0.092,0.0814,0.0785,0.0599,0.0508,0.0496,0.0451,0.0705,0.0702,0.0699,0.0697,0,0.0661,0.0704,0.0805,0.0919,0.1019,0.1134,0.1254,0.1319,0.1428,0.1507,0.1581,0.16,0.1453,0.1265,0.1019,0.0885,0.0712,0.0752,0.0629,0.0448,0.0374,0.0282,0.0649,0.0674,0.0676,0.0678,0.0679,0.068,0.0718,0.079,0.0882,0.0993,0.1088,0.1174,0.1256,0.1351,0.1456,0.1554,0.1592,0.1596,0.1347,0.1007,0.0831,0.0434,0.0508,0.0316,0.0288,0.0305,0.0227,0.0505,0.043,0.043,0.0431,0.0432,0.0432,0,0.0776,0.0834,0.0938,0.1052,0.1125,0.1172,0.13,0.1352,0.1442,0.1523,0.1572,0.1404,0.1081,0.0778,0.0269,0.0019,-0.0018,-0.01,-0.0112,-0.0122,0.0175,0.0141,-0.0083,-0.0083,-0.0082,-0.0082,-0.0082,-0.0082,0.0806,0.089,0.0929,0.1042,0.1108,0.1192,0.1252,0.1323,0.1391,0.1416,0.1388,0.1381,0.1089,0.0323,-0.0236,-0.0349,-0.0452,-0.0502,-0.0525,-0.0336,-0.0299,-0.0263,-0.0308,-0.0622,-0.0623,-0.0811,-0.0813,-0.0815]}],[{"header":{"parameterUnit":"m.s-1","parameterCategory":2,"la1":30.2991,"la2":30.254,"lo1":-89.0895,"lo2":-89.0444,"dy":0.0017,"dx":0.0017,"nx":28,"ny":28,"refTime":"2024-09-04T03:00:00:Z","depth":"2","parameterNumber":2,"parameterNumberName":"U-component_of_CURRENTS"},"data":[0,0,0,0,0,0,0,0,0,0,0,0,0,0,0,0,0,0,0,0,0,0,0,0,0,0,0,0,0,0,0,0,0,0,0,0,0,0,0,0,0,0,0,0,0,0,0,0,0,0,0,0,0,0,0,0,0,0,0.1294,0.1294,0,0.1305,0.1306,0.1306,0.1305,0.1304,0.1304,0.1304,0.1394,0.1397,0.1399,0,0,0,0,0,0,0,0,0,0,0,0,0,0.1275,0.1275,0.1294,0.1294,0.1294,0.1305,0.1306,0.1306,0.1305,0.1304,0.1304,0.1304,0.1393,0.1396,0.1399,0,0,0,0,0,0,0,0,0,0,0,0,0,0.1285,0.1275,0.1294,0.1294,0.1294,0.1305,0.1306,0.1306,0.1305,0.1304,0.1304,0.1304,0.1392,0.1396,0.14,0.1432,0,0,0.1412,0.1414,0,0,0,0,0,0,0,0,0.1285,0.1286,0.1294,0.1294,0.1294,0.1302,0.1332,0.1352,0.1305,0.1302,0.1304,0.1303,0.137,0.1376,0.1379,0.1437,0.144,0.1412,0.1415,0.1416,0.1418,0,0,0,0,0,0,0,0.1284,0.1285,0.13,0.1294,0.1294,0.1295,0.1296,0.1335,0.134,0.1302,0.1302,0.1302,0.1371,0.1375,0.1382,0.1442,0.1412,0.1416,0.1418,0.142,0.1598,0.1601,0,0,0,0,0,0,0.1281,0.1285,0.1299,0.13,0.1287,0.1295,0.1297,0.1301,0.1338,0.1343,0.1302,0.1302,0.1369,0.1377,0.1385,0.1478,0.1416,0.142,0.1422,0.1596,0.1599,0.1601,0,0,0,0,0,0,0.1281,0.1282,0.1299,0.1291,0.1293,0.1296,0.1301,0.1301,0.1307,0.1337,0.1343,0.1306,0.1369,0.1379,0.1444,0.148,0.1422,0.1426,0.1593,0.1597,0.16,0.1631,0,0,0,0,0,0,0.128,0.1282,0.1287,0.1291,0.1294,0.1319,0.1301,0.1302,0.1307,0.1306,0.1344,0.1351,0.1369,0.1438,0.1448,0.1484,0.1429,0.159,0.1595,0.1599,0.1627,0.1636,0.1643,0,0,0,0,0,0.1279,0.1287,0.1288,0.1289,0.13,0.132,0.1322,0.1322,0.1307,0.1322,0.1354,0.135,0.1473,0.1443,0.1454,0.1492,0.1588,0.1594,0.1599,0.1624,0.1634,0.1642,0,0,0,0,0,0,0.1288,0.1288,0.1288,0.1298,0.1314,0.1319,0.1326,0.1324,0.1356,0.1355,0.138,0.1392,0.1462,0.1478,0.1444,0.156,0.153,0.1538,0.1546,0.1556,0.1563,0.1575,0.1432,0,0,0,0,0,0.1291,0.1294,0.1303,0.1314,0.1318,0.1322,0.1327,0.133,0.1354,0.1365,0.1392,0.1434,0.1492,0.1522,0.1567,0.163,0.1628,0.1664,0.1671,0.1677,0.1697,0.1737,0.1749,0.1619,0.1619,0.1619,0,0,0.1299,0.1298,0.1301,0.1316,0.1321,0.1349,0.1325,0.1336,0.1372,0.1374,0.143,0.146,0.1516,0.1589,0.1621,0.1606,0.1707,0.1684,0.1689,0.1706,0.1744,0.1756,0.1767,0.1623,0.1622,0.1621,0,0,0.1312,0.1314,0.1319,0.1337,0.1347,0.1362,0.1367,0.1379,0.1397,0.1455,0.1472,0.1531,0.1599,0.1655,0.1692,0.1773,0.1745,0.1777,0.1828,0.1865,0.1876,0.1885,0.186,0.1867,0.1782,0.1782,0.1782,0,0.1324,0.1335,0.1328,0.1346,0.1373,0.1372,0.1406,0.1429,0.1466,0.15,0.1482,0.1608,0.1642,0.1754,0.1782,0.1791,0.1779,0.1782,0.1873,0.1883,0.1892,0.1863,0.1871,0.1784,0.1784,0.1784,0.1784,0,0.1342,0.1362,0.1369,0.1399,0.143,0.1458,0.1493,0.1526,0.1543,0.1572,0.1664,0.1711,0.1787,0.1807,0.1822,0.1914,0.187,0.1871,0.1841,0.1906,0.1872,0.1879,0.1787,0.1787,0.1786,0.1785,0,0,0.1354,0.1377,0.1385,0.1412,0.1463,0.1491,0.1561,0.1632,0.1674,0.172,0.1792,0.1891,0.1893,0.1937,0.1954,0.1992,0.2028,0.1957,0.1958,0.1915,0.2058,0.1902,0.1894,0.2034,0.2036,0.2038,0.1993,0,0.138,0.1417,0.1435,0.1506,0.1537,0.1581,0.1649,0.1713,0.1758,0.1823,0.1886,0.1953,0.1949,0.1974,0.202,0.2037,0.2054,0.2037,0.2017,0.2016,0.1857,0.1901,0.1817,0.176,0.1999,0.2,0.2001,0,0.14,0.1426,0.1486,0.1561,0.1581,0.1631,0.1739,0.1794,0.1888,0.1921,0.1997,0.2022,0.211,0.2076,0.214,0.2121,0.2098,0.2093,0.2091,0.1947,0.1875,0.1745,0.1763,0.2012,0.2011,0.2011,0.201,0,0.1413,0.1472,0.1522,0.155,0.1631,0.168,0.1733,0.1826,0.1875,0.1973,0.2001,0.2104,0.2126,0.2165,0.2136,0.2146,0.2157,0.2172,0.2005,0.1991,0.192,0.1895,0.2207,0.2207,0.2207,0.2207,0.2207,0,0.1441,0.1487,0.1526,0.1559,0.1635,0.1688,0.178,0.1836,0.1916,0.1964,0.2037,0.2064,0.2146,0.2148,0.215,0.2072,0.2165,0.2018,0.1984,0.1921,0.1898,0.213,0.2121,0.2206,0.2206,0.2206,0.2207,0,0.1456,0.1479,0.1542,0.1615,0.164,0.1695,0.179,0.183,0.1904,0.1962,0.1987,0.2041,0.2032,0.2057,0.2083,0.2042,0.2018,0.1956,0.1834,0.1786,0.1825,0.182,0.1808,0.1802,0.1797,0.1793,0.179,0,0.1473,0.1494,0.1567,0.1592,0.1626,0.1705,0.174,0.1824,0.1854,0.1925,0.1928,0.1935,0.1888,0.1839,0.1824,0.1777,0.1855,0.1633,0.1658,0.1824,0.1792,0.1794,0.1795,0.1568,0.1563,0.1559,0.1556,0,0.1499,0.1514,0.1559,0.1582,0.1618,0.1678,0.1726,0.174,0.1809,0.1816,0.1787,0.1746,0.1699,0.1598,0.1514,0.1493,0.1648,0.1544,0.1789,0.1659,0.1588,0.156,0.1571,0.152,0.1524,0.1527,0.1528,0.153,0.1515,0.1533,0.1544,0.1574,0.1604,0.1604,0.1621,0.1624,0.1613,0.1563,0.1594,0.148,0.1473,0.1288,0.1244,0.1255,0.136,0.1339,0.1357,0.1378,0.1336,0.1258,0.1118,0.1119,0.112,0.1121,0.1122,0,0.1509,0.1508,0.152,0.1526,0.1511,0.1568,0.157,0.1527,0.1442,0.1384,0.1312,0.1135,0.1031,0.1057,0.1021,0.0991,0.1053,0.096,0.1068,0.1102,0.1133,0.1085,0.0797,0.0796,0.0795,0.0794,0,0,0.1496,0.148,0.1463,0.1413,0.1433,0.1398,0.1394,0.13,0.1244,0.1049,0.0968,0.0953,0.1,0.0873,0.0866,0.0837,0.0968,0.0807,0.1071,0.1234,0.1263,0.1354,0.1316,0,0,0,0,0]},{"header":{"parameterUnit":"m.s-1","parameterCategory":2,"la1":30.2991,"la2":30.254,"lo1":-89.0895,"lo2":-89.0444,"dy":0.0017,"dx":0.0017,"nx":28,"ny":28,"refTime":"2024-09-04T03:00:00:Z","depth":"2","parameterNumber":3,"parameterNumberName":"V-component_of_CURRENTS"},"data":[0,0,0,0,0,0,0,0,0,0,0,0,0,0,0,0,0,0,0,0,0,0,0,0,0,0,0,0,0,0,0,0,0,0,0,0,0,0,0,0,0,0,0,0,0,0,0,0,0,0,0,0,0,0,0,0,0,0,-0.0104,-0.0104,0,-0.0159,-0.0159,-0.0159,-0.0201,-0.0201,-0.0202,-0.0203,-0.023,-0.023,-0.023,0,0,0,0,0,0,0,0,0,0,0,0,0,-0.0022,-0.0023,-0.0103,-0.0104,-0.0105,-0.0159,-0.0159,-0.016,-0.0201,-0.0201,-0.0202,-0.0203,-0.023,-0.023,-0.023,0,0,0,0,0,0,0,0,0,0,0,0,0,-0.0063,-0.0024,-0.0103,-0.0134,-0.0138,-0.0158,-0.0159,-0.016,-0.02,-0.0201,-0.0202,-0.0203,-0.023,-0.023,-0.023,-0.0213,0,0,-0.0231,-0.0231,0,0,0,0,0,0,0,0,-0.006,-0.0065,-0.0129,-0.0132,-0.0136,-0.0176,-0.0141,-0.0177,-0.02,-0.0174,-0.0203,-0.0204,-0.021,-0.0212,-0.0217,-0.0214,-0.0215,-0.0231,-0.0231,-0.0231,-0.0231,0,0,0,0,0,0,0,-0.0058,-0.0063,-0.0123,-0.013,-0.0134,-0.0142,-0.0148,-0.0148,-0.0183,-0.0176,-0.018,-0.019,-0.0212,-0.0217,-0.0218,-0.0216,-0.0231,-0.0231,-0.0231,-0.0231,-0.0223,-0.0223,0,0,0,0,0,0,-0.0056,-0.0061,-0.0121,-0.0124,-0.0103,-0.0143,-0.015,-0.016,-0.0184,-0.019,-0.0189,-0.0192,-0.0216,-0.0218,-0.0219,-0.0203,-0.0231,-0.0231,-0.0231,-0.0223,-0.0223,-0.0223,0,0,0,0,0,0,-0.0054,-0.0061,-0.0119,-0.0096,-0.0104,-0.0143,-0.0154,-0.0161,-0.0169,-0.0195,-0.02,-0.0191,-0.0217,-0.0219,-0.0209,-0.0204,-0.0231,-0.0232,-0.0224,-0.0223,-0.0223,-0.0169,0,0,0,0,0,0,-0.0051,-0.006,-0.0059,-0.0096,-0.0106,-0.0122,-0.0154,-0.0161,-0.0175,-0.0179,-0.0198,-0.0202,-0.0218,-0.0209,-0.0209,-0.0205,-0.0232,-0.0224,-0.0224,-0.0223,-0.0171,-0.0167,-0.0163,0,0,0,0,0,-0.0048,-0.0046,-0.0059,-0.0066,-0.0106,-0.0121,-0.0126,-0.0155,-0.0174,-0.0167,-0.018,-0.0201,-0.0206,-0.0208,-0.0209,-0.0205,-0.0225,-0.0224,-0.0223,-0.0173,-0.0168,-0.0163,0,0,0,0,0,0,-0.0012,-0.0052,-0.0066,-0.0077,-0.0093,-0.0129,-0.0129,-0.015,-0.0156,-0.0159,-0.0184,-0.0188,-0.0177,-0.0197,-0.0199,-0.0203,-0.0224,-0.0223,-0.0185,-0.018,-0.0176,-0.015,-0.0232,0,0,0,0,0,-0.0003,-0.001,-0.0046,-0.0051,-0.0059,-0.0091,-0.0101,-0.012,-0.0136,-0.0141,-0.0151,-0.0167,-0.0174,-0.0182,-0.0183,-0.018,-0.0218,-0.0184,-0.0179,-0.0176,-0.0156,-0.0222,-0.0222,-0.022,-0.022,-0.022,0,0,0.0009,-0.0012,-0.0017,-0.0042,-0.0059,-0.0059,-0.0098,-0.0108,-0.0108,-0.0141,-0.0129,-0.014,-0.0166,-0.016,-0.016,-0.0179,-0.0197,-0.0175,-0.0171,-0.0153,-0.0221,-0.0222,-0.0222,-0.022,-0.022,-0.022,0,0,0.0029,0.0013,0.0012,0.0005,-0.0018,-0.0032,-0.0033,-0.0058,-0.007,-0.0053,-0.0088,-0.0091,-0.0091,-0.0118,-0.0132,-0.0105,-0.0163,-0.0118,-0.0084,-0.0149,-0.015,-0.0151,-0.0204,-0.021,-0.0128,-0.0128,-0.0128,0,0.0044,0.0038,0.0013,0.0015,0.002,-0.0016,-0.0003,-0.0019,-0.0035,-0.0031,-0.0036,-0.0044,-0.0067,-0.0085,-0.0078,-0.0094,-0.0141,-0.0101,-0.0144,-0.0146,-0.0148,-0.0202,-0.021,-0.0125,-0.0125,-0.0126,-0.0126,0,0.0064,0.0064,0.0068,0.0063,0.007,0.0076,0.0055,0.0053,0.005,0.0047,0.0053,0.0024,0.0017,-0.0004,-0.0027,-0.0061,-0.0092,-0.0123,-0.0156,-0.0145,-0.0203,-0.0211,-0.0121,-0.0122,-0.0123,-0.0124,0,0,0.0082,0.0081,0.0084,0.009,0.0099,0.01,0.0112,0.0116,0.0115,0.012,0.0128,0.0116,0.0103,0.0086,0.0034,-0.0025,-0.0083,-0.0077,-0.0082,-0.0126,-0.0227,-0.021,-0.0219,-0.0135,-0.0136,-0.0137,-0.0263,0,0.0105,0.0119,0.0126,0.0156,0.016,0.0158,0.0184,0.0187,0.0179,0.0178,0.0149,0.0152,0.013,0.0116,0.0062,-0.0045,-0.0103,-0.0045,-0.0232,-0.0237,-0.0222,-0.0227,-0.0186,-0.0291,-0.0272,-0.0273,-0.0274,0,0.0122,0.0126,0.0164,0.0192,0.0201,0.0231,0.0253,0.027,0.0262,0.0259,0.0253,0.0225,0.0173,0.0137,-0.0012,0.0021,-0.0083,-0.0171,-0.0179,-0.0182,-0.0235,-0.0299,-0.0309,-0.029,-0.0289,-0.0288,-0.0286,0,0.0137,0.0155,0.019,0.0202,0.0235,0.0262,0.0293,0.0306,0.0317,0.0302,0.0293,0.0253,0.0205,0.0095,-0.0051,-0.0044,-0.0239,-0.026,-0.0341,-0.0341,-0.0348,-0.0347,-0.0371,-0.0371,-0.0371,-0.037,-0.037,0,0.0161,0.018,0.0196,0.0216,0.0268,0.0294,0.0342,0.0355,0.0366,0.0362,0.034,0.0276,0.0185,0.0067,-0.0051,-0.0213,-0.0239,-0.0323,-0.037,-0.0328,-0.0323,-0.0351,-0.0347,-0.0375,-0.0374,-0.0373,-0.0372,0,0.0177,0.019,0.0223,0.0262,0.0278,0.0325,0.0382,0.0375,0.0405,0.0377,0.0376,0.0289,0.0149,0.0047,-0.0157,-0.0226,-0.0378,-0.044,-0.0366,-0.04,-0.0435,-0.0427,-0.052,-0.052,-0.052,-0.0521,-0.0521,0,0.0191,0.0203,0.0256,0.0263,0.0286,0.0336,0.0346,0.0399,0.0371,0.0344,0.0296,0.0203,0.0105,-0.0126,-0.0246,-0.0395,-0.0433,-0.0473,-0.0433,-0.0412,-0.045,-0.0441,-0.0432,-0.0436,-0.0435,-0.0435,-0.0435,0,0.0198,0.0223,0.0246,0.0251,0.0265,0.0288,0.0297,0.0298,0.0315,0.0293,0.0199,0.0148,-0.0013,-0.0133,-0.0275,-0.0385,-0.0421,-0.0468,-0.0503,-0.0384,-0.0338,-0.0372,-0.0366,-0.0431,-0.0431,-0.0432,-0.0432,-0.0432,0.0189,0.0199,0.02,0.0216,0.0229,0.021,0.0224,0.0199,0.0197,0.0201,0.0139,0.0109,0.0005,-0.0139,-0.0285,-0.0404,-0.0422,-0.0464,-0.0464,-0.0465,-0.0412,-0.0366,-0.0456,-0.0456,-0.0456,-0.0457,-0.0457,0,0.0118,0.0122,0.0131,0.0136,0.0134,0.0168,0.015,0.0157,0.0136,0.0174,0.0172,0.0105,0.0011,-0.0102,-0.0259,-0.0376,-0.0377,-0.0416,-0.0387,-0.039,-0.0393,-0.0335,-0.036,-0.036,-0.036,-0.036,0,0,0.0059,0.002,0.0028,0.0019,0.0051,0.0048,0.0054,0.0081,0.0117,0.0161,0.0207,0.0252,0.0081,-0.0006,-0.0164,-0.0255,-0.0296,-0.0275,-0.0343,-0.0294,-0.0295,-0.0415,-0.0328,0,0,0,0,0]}],[{"header":{"parameterUnit":"m.s-1","parameterCategory":2,"la1":30.2991,"la2":30.254,"lo1":-89.0895,"lo2":-89.0444,"dy":0.0017,"dx":0.0017,"nx":28,"ny":28,"refTime":"2024-09-04T03:00:00:Z","depth":"4","parameterNumber":2,"parameterNumberName":"U-component_of_CURRENTS"},"data":[0,0,0,0,0,0,0,0,0,0,0,0,0,0,0,0,0,0,0,0,0,0,0,0,0,0,0,0,0,0,0,0,0,0,0,0,0,0,0,0,0,0,0,0,0,0,0,0,0,0,0,0,0,0,0,0,0,0,0.0297,0.0297,0,0.0311,0.0311,0.031,0.0354,0.0355,0.0357,0.0358,0.0378,0.0377,0.0376,0,0,0,0,0,0,0,0,0,0,0,0,0,0.0312,0.0312,0.0297,0.0297,0.0298,0.0311,0.0311,0.031,0.0354,0.0355,0.0357,0.0358,0.0378,0.0377,0.0376,0,0,0,0,0,0,0,0,0,0,0,0,0,0.0311,0.0311,0.0297,0.0323,0.0326,0.0311,0.0311,0.031,0.0354,0.0355,0.0357,0.0359,0.0378,0.0377,0.0376,0.0333,0,0,0.0373,0.0373,0,0,0,0,0,0,0,0,0.0311,0.031,0.0319,0.0322,0.0325,0.0335,0.0324,0.0319,0.0353,0.034,0.0358,0.036,0.0365,0.0365,0.0359,0.0334,0.0334,0.0373,0.0373,0.0372,0.0372,0,0,0,0,0,0,0,0.0311,0.031,0.0299,0.0319,0.0323,0.0336,0.0338,0.0323,0.0339,0.0341,0.0345,0.0351,0.0366,0.036,0.036,0.0335,0.0373,0.0372,0.0372,0.0371,0.0383,0.0384,0,0,0,0,0,0,0.0313,0.0309,0.0299,0.03,0.0326,0.0335,0.0336,0.0327,0.0339,0.0344,0.0349,0.0353,0.036,0.0361,0.0361,0.0401,0.0372,0.0371,0.0371,0.0382,0.0383,0.0384,0,0,0,0,0,0,0.0313,0.0311,0.0298,0.0309,0.0308,0.0333,0.0322,0.0327,0.0366,0.0346,0.0351,0.039,0.0362,0.0362,0.0381,0.0399,0.0371,0.037,0.0381,0.0383,0.0384,0.0424,0,0,0,0,0,0,0.0313,0.031,0.0313,0.0308,0.0308,0.0322,0.0321,0.0326,0.0365,0.0371,0.0381,0.0382,0.0363,0.0383,0.038,0.0397,0.0369,0.038,0.0382,0.0383,0.0422,0.0427,0.0431,0,0,0,0,0,0.0313,0.0316,0.0312,0.0312,0.0307,0.0323,0.0325,0.0346,0.0366,0.0388,0.0392,0.0384,0.0392,0.0382,0.0379,0.0397,0.0379,0.0381,0.0383,0.042,0.0426,0.0431,0,0,0,0,0,0,0.032,0.0321,0.0317,0.0318,0.0333,0.0333,0.0358,0.037,0.0389,0.0402,0.039,0.0391,0.0412,0.0401,0.0391,0.0407,0.0386,0.0388,0.0415,0.0421,0.0425,0.0429,0.0368,0,0,0,0,0,0.0319,0.0331,0.0328,0.0335,0.0347,0.0358,0.0372,0.0383,0.0395,0.0409,0.0408,0.041,0.0408,0.0416,0.0406,0.0413,0.0395,0.0425,0.043,0.0434,0.0436,0.0422,0.0425,0.0391,0.0391,0.0391,0,0,0.0313,0.0328,0.0326,0.034,0.0355,0.0363,0.0373,0.0406,0.0413,0.0404,0.0425,0.0425,0.0414,0.042,0.043,0.0421,0.0435,0.0437,0.044,0.0439,0.0425,0.0428,0.0431,0.0392,0.0392,0.0392,0,0,0.0335,0.0335,0.0358,0.0369,0.0402,0.0398,0.042,0.0432,0.0447,0.0458,0.0453,0.0471,0.0466,0.0458,0.0454,0.0481,0.0458,0.0487,0.0515,0.0502,0.0505,0.0506,0.0489,0.0489,0.0492,0.0492,0.0492,0,0.0333,0.035,0.0368,0.0397,0.0402,0.042,0.0433,0.0442,0.0457,0.0469,0.0477,0.0478,0.0479,0.048,0.0498,0.0491,0.0479,0.0493,0.0507,0.0509,0.051,0.0492,0.0492,0.0495,0.0494,0.0494,0.0494,0,0.0372,0.0378,0.04,0.0426,0.0438,0.0456,0.046,0.0477,0.0494,0.0501,0.0522,0.0513,0.0524,0.0524,0.0523,0.0536,0.0523,0.0511,0.0491,0.0516,0.0495,0.0494,0.0498,0.0497,0.0496,0.0496,0,0,0.0369,0.0412,0.0422,0.0428,0.0449,0.0463,0.0474,0.0489,0.0505,0.0523,0.0538,0.055,0.0571,0.0568,0.0565,0.0556,0.0564,0.055,0.0548,0.0529,0.0536,0.0555,0.0555,0.0557,0.0557,0.0557,0.0519,0,0.0389,0.0437,0.0451,0.0468,0.0473,0.0479,0.0484,0.0503,0.0517,0.0534,0.0547,0.0562,0.0581,0.059,0.0593,0.0559,0.0563,0.0575,0.0518,0.0516,0.0527,0.0555,0.0557,0.0517,0.0517,0.0517,0.0517,0,0.0415,0.044,0.0467,0.0472,0.048,0.0495,0.0505,0.0513,0.0538,0.0549,0.0578,0.0591,0.0601,0.0604,0.0583,0.0592,0.0587,0.0556,0.0554,0.0556,0.0534,0.0487,0.0514,0.0514,0.0514,0.0514,0.0515,0,0.0401,0.0441,0.0464,0.0468,0.0483,0.0502,0.0515,0.0534,0.0539,0.0567,0.058,0.0594,0.0603,0.0587,0.0583,0.0581,0.054,0.0522,0.0531,0.0531,0.0504,0.0502,0.0518,0.0518,0.0518,0.0518,0.0518,0,0.0393,0.0411,0.0471,0.0473,0.0488,0.0516,0.0529,0.0536,0.0559,0.0569,0.0608,0.0606,0.0603,0.0595,0.0577,0.0561,0.0548,0.0542,0.0528,0.0523,0.0523,0.0503,0.0501,0.0517,0.0517,0.0517,0.0518,0,0.0362,0.0404,0.0419,0.0462,0.0473,0.0493,0.052,0.0531,0.0565,0.0572,0.0586,0.0614,0.0611,0.0605,0.0563,0.0559,0.0523,0.0527,0.0527,0.0512,0.0518,0.0519,0.0511,0.0512,0.0512,0.0512,0.0513,0,0.0352,0.0361,0.04,0.0409,0.0433,0.0465,0.0472,0.0512,0.0524,0.0568,0.0568,0.0598,0.0615,0.0567,0.0565,0.0536,0.0543,0.0522,0.0525,0.0533,0.0519,0.052,0.0521,0.0513,0.0513,0.0514,0.0514,0,0.0309,0.0336,0.0347,0.0359,0.0383,0.0393,0.0425,0.043,0.0482,0.0522,0.0544,0.0564,0.0572,0.0559,0.0566,0.0539,0.0523,0.0526,0.0525,0.0527,0.0535,0.0522,0.0522,0.0515,0.0515,0.0515,0.0515,0,0.0282,0.0281,0.03,0.0312,0.0326,0.0332,0.0348,0.0386,0.0408,0.0484,0.0482,0.0524,0.0555,0.0561,0.0547,0.0549,0.0539,0.0515,0.0514,0.0512,0.0537,0.0548,0.0526,0,0,0,0,0,0.0255,0.0253,0.025,0.0261,0.0272,0.0288,0.0319,0.0348,0.0409,0.0417,0.0459,0.0473,0.0501,0.0514,0.0515,0.054,0.0528,0.054,0.0495,0.0523,0.0521,0.0554,0,0,0,0,0,0,0.0237,0.0238,0.0236,0.022,0.0225,0.0236,0.026,0.0298,0.0314,0.038,0.0392,0.0457,0.0478,0.0497,0.0509,0.0516,0.0483,0.0573,0.0573,0.0524,0.0522,0.0521,0.0554,0,0,0,0,0]},{"header":{"parameterUnit":"m.s-1","parameterCategory":2,"la1":30.2991,"la2":30.254,"lo1":-89.0895,"lo2":-89.0444,"dy":0.0017,"dx":0.0017,"nx":28,"ny":28,"refTime":"2024-09-04T03:00:00:Z","depth":"4","parameterNumber":3,"parameterNumberName":"V-component_of_CURRENTS"},"data":[0,0,0,0,0,0,0,0,0,0,0,0,0,0,0,0,0,0,0,0,0,0,0,0,0,0,0,0,0,0,0,0,0,0,0,0,0,0,0,0,0,0,0,0,0,0,0,0,0,0,0,0,0,0,0,0,0,0,0.0029,0.0028,0,-0.0034,-0.0035,-0.0036,-0.0058,-0.0057,-0.0057,-0.0057,-0.0195,-0.0199,-0.0203,0,0,0,0,0,0,0,0,0,0,0,0,0,0.0012,0.0013,0.0029,0.0028,0.0028,-0.0034,-0.0035,-0.0036,-0.0058,-0.0057,-0.0057,-0.0056,-0.0194,-0.0198,-0.0203,0,0,0,0,0,0,0,0,0,0,0,0,0,-0.0011,0.0014,0.0029,0.0011,0.0009,-0.0034,-0.0035,-0.0037,-0.0058,-0.0057,-0.0057,-0.0056,-0.0192,-0.0198,-0.0204,-0.0257,0,0,-0.0223,-0.0226,0,0,0,0,0,0,0,0,-0.0009,-0.001,0.0014,0.0012,0.001,-0.0035,-0.0092,-0.0113,-0.0058,-0.0035,-0.0057,-0.0056,-0.0147,-0.0157,-0.0173,-0.0263,-0.0269,-0.0224,-0.0227,-0.023,-0.0232,0,0,0,0,0,0,0,-0.0007,-0.0008,0.0001,0.0014,0.0011,-0.0034,-0.0035,-0.0096,-0.0098,-0.0037,-0.0038,-0.0042,-0.0149,-0.0167,-0.0177,-0.0271,-0.0223,-0.0229,-0.0233,-0.0235,-0.0396,-0.0396,0,0,0,0,0,0,0.0011,-0.0006,0.0003,-0.0,0.0005,-0.0033,-0.0035,-0.0024,-0.0096,-0.0105,-0.0042,-0.0042,-0.0157,-0.017,-0.0182,-0.0259,-0.023,-0.0236,-0.0239,-0.0395,-0.0396,-0.0396,0,0,0,0,0,0,0.0011,0.0013,0.0006,-0.0004,-0.0008,-0.0033,-0.002,-0.0025,-0.0053,-0.0098,-0.0109,-0.0065,-0.0157,-0.0173,-0.0241,-0.0264,-0.0239,-0.0244,-0.0395,-0.0395,-0.0396,-0.0408,0,0,0,0,0,0,0.0011,0.0014,0.0019,-0.0002,-0.0006,-0.0035,-0.0021,-0.0027,-0.0054,-0.0055,-0.0122,-0.0133,-0.0158,-0.0232,-0.0248,-0.0272,-0.0249,-0.0394,-0.0395,-0.0396,-0.0406,-0.0409,-0.041,0,0,0,0,0,0.0011,0.0011,0.002,0.002,0.0006,-0.0036,-0.0044,-0.0062,-0.0056,-0.0082,-0.0115,-0.0131,-0.0248,-0.0238,-0.0256,-0.0283,-0.0393,-0.0395,-0.0396,-0.0406,-0.0408,-0.041,0,0,0,0,0,0,0.0,0.0009,0.0018,0.002,-0.0009,-0.0039,-0.0061,-0.0071,-0.0118,-0.0118,-0.0155,-0.017,-0.023,-0.0258,-0.0245,-0.0328,-0.0318,-0.0323,-0.0319,-0.0322,-0.0324,-0.0331,-0.0254,0,0,0,0,0,0.0005,0.0009,-0.0,-0.0005,-0.0014,-0.0039,-0.0059,-0.0072,-0.0108,-0.0127,-0.0172,-0.0212,-0.0249,-0.0286,-0.0325,-0.0392,-0.0393,-0.0413,-0.0416,-0.0417,-0.0433,-0.0451,-0.0457,-0.0401,-0.0401,-0.0401,0,0,0.0003,0.0003,0.0008,-0.0007,-0.0026,-0.0056,-0.0051,-0.0086,-0.0115,-0.0139,-0.0201,-0.0227,-0.0266,-0.0323,-0.0353,-0.0353,-0.0427,-0.0419,-0.042,-0.0435,-0.0453,-0.0459,-0.0464,-0.0401,-0.0401,-0.0401,0,0,-0.0018,-0.0002,-0.0011,-0.0036,-0.0065,-0.008,-0.0092,-0.013,-0.015,-0.021,-0.0218,-0.0259,-0.0338,-0.0362,-0.0383,-0.0425,-0.0431,-0.0435,-0.0468,-0.0485,-0.049,-0.0494,-0.0474,-0.0477,-0.0444,-0.0444,-0.0444,0,-0.0022,-0.0028,-0.0028,-0.0057,-0.0076,-0.0091,-0.0121,-0.0149,-0.0208,-0.023,-0.0231,-0.032,-0.0353,-0.0408,-0.0418,-0.0432,-0.0432,-0.0455,-0.0488,-0.0493,-0.0497,-0.0475,-0.0478,-0.0445,-0.0445,-0.0445,-0.0445,0,-0.0059,-0.0066,-0.0082,-0.0106,-0.0134,-0.0166,-0.0191,-0.0224,-0.0242,-0.0272,-0.0331,-0.0369,-0.0421,-0.0431,-0.0446,-0.0494,-0.0477,-0.048,-0.0481,-0.0503,-0.0479,-0.0481,-0.0446,-0.0446,-0.0445,-0.0445,0,0,-0.006,-0.0093,-0.01,-0.0114,-0.0158,-0.0184,-0.0225,-0.0267,-0.0285,-0.0347,-0.0381,-0.0447,-0.0465,-0.0489,-0.0506,-0.053,-0.0548,-0.0528,-0.0529,-0.0507,-0.0564,-0.052,-0.0518,-0.0561,-0.0562,-0.0563,-0.0523,0,-0.0089,-0.0129,-0.0146,-0.0194,-0.0213,-0.0235,-0.027,-0.0312,-0.0337,-0.0377,-0.0418,-0.0458,-0.0487,-0.0501,-0.0539,-0.0541,-0.0561,-0.0557,-0.0549,-0.0548,-0.0505,-0.0523,-0.0568,-0.0525,-0.0526,-0.0526,-0.0527,0,-0.0125,-0.0142,-0.0182,-0.0214,-0.0225,-0.026,-0.0295,-0.0329,-0.0379,-0.0398,-0.0452,-0.0477,-0.0532,-0.0537,-0.0584,-0.0582,-0.0587,-0.0585,-0.0583,-0.0547,-0.051,-0.0507,-0.0532,-0.0531,-0.0531,-0.0531,-0.053,0,-0.0125,-0.017,-0.0195,-0.0212,-0.0254,-0.0276,-0.0299,-0.0343,-0.0352,-0.0408,-0.0408,-0.0491,-0.0496,-0.0549,-0.0561,-0.0578,-0.0581,-0.0595,-0.0557,-0.0552,-0.0597,-0.0593,-0.063,-0.063,-0.0631,-0.0631,-0.0631,0,-0.0148,-0.0172,-0.0196,-0.0213,-0.0239,-0.0275,-0.0297,-0.0327,-0.035,-0.0349,-0.042,-0.0413,-0.0501,-0.0512,-0.0552,-0.0553,-0.0576,-0.0568,-0.0551,-0.0597,-0.0594,-0.0597,-0.0593,-0.0629,-0.0629,-0.063,-0.063,0,-0.0157,-0.0172,-0.02,-0.0234,-0.024,-0.0264,-0.0277,-0.0278,-0.0307,-0.0296,-0.0308,-0.0349,-0.0368,-0.0427,-0.0471,-0.0503,-0.0525,-0.0516,-0.053,-0.0512,-0.0486,-0.0484,-0.0487,-0.0485,-0.0484,-0.0483,-0.0482,0,-0.0164,-0.0177,-0.0204,-0.0201,-0.0218,-0.0237,-0.0233,-0.026,-0.0245,-0.024,-0.0222,-0.0239,-0.0271,-0.0287,-0.0373,-0.0439,-0.0453,-0.0458,-0.0525,-0.0494,-0.0477,-0.0477,-0.0477,-0.0479,-0.0479,-0.0479,-0.0478,0,-0.0169,-0.0181,-0.0195,-0.0181,-0.0179,-0.0172,-0.0166,-0.0145,-0.0151,-0.017,-0.013,-0.0162,-0.017,-0.0245,-0.0285,-0.0342,-0.0464,-0.0445,-0.0449,-0.0512,-0.0485,-0.047,-0.0471,-0.0474,-0.0474,-0.0475,-0.0475,0,-0.0163,-0.0165,-0.0162,-0.0158,-0.0142,-0.0105,-0.0111,-0.0077,-0.0068,-0.0064,-0.0041,-0.0081,-0.0116,-0.0189,-0.023,-0.0283,-0.0318,-0.0347,-0.0358,-0.0364,-0.0358,-0.0308,-0.0231,0,0,0,0,0,-0.0147,-0.0132,-0.0124,-0.011,-0.0094,-0.0086,-0.0055,-0.0055,-0.0051,-0.0007,-0.0024,-0.0035,-0.0097,-0.0133,-0.0177,-0.0227,-0.0339,-0.0282,-0.0381,-0.0447,-0.0453,-0.0465,0,0,0,0,0,0,-0.0125,-0.0113,-0.0114,-0.0069,-0.0053,-0.0024,-0.0006,-0.0002,0.0018,0.0013,-0.0019,-0.0049,-0.0117,-0.0073,-0.018,-0.0199,-0.0267,-0.0324,-0.0325,-0.0444,-0.0449,-0.0453,-0.0468,0,0,0,0,0]}]]